GW4457 Weather Reports


Display with metric or nautical units.
time (UTC)temp
F
wind
direction
speed
MPH
gust
MPH
rain 1hr
in
rain 24hr
in
rain mn
in
humidity
%
barometer
mb
20260901233508 81 96 6.0 9.0 0.00 0.00 0.00 82 1020.4
20260901233005 81 131 4.0 7.0 0.00 0.00 0.00 82 1020.2
20260901232459 81 198 3.0 10.0 0.00 0.00 0.00 82 1020.2
20260901231954 81 195 5.0 8.0 0.00 0.00 0.00 81 1019.9
20260901231450 81 100 8.0 14.0 0.00 0.00 0.00 81 1020.2
20260901230948 82 80 8.0 10.0 0.00 0.00 0.00 81 1020.2
20260901230447 81 82 7.0 10.0 0.00 0.00 0.00 81 1020.0
20260901225942 81 113 6.0 10.0 0.00 0.00 0.00 81 1020.1
20260901225442 81 96 7.0 11.0 0.00 0.00 0.00 82 1020.0
20260901224937 82 148 4.0 8.0 0.00 0.00 0.00 82 1019.9
20260901224433 82 115 9.0 13.0 0.00 0.00 0.00 82 1020.1
20260901223929 82 101 9.0 11.0 0.00 0.00 0.00 81 1020.0
20260901223424 82 237 7.0 11.0 0.00 0.00 0.00 81 1020.1
20260901222920 82 147 5.0 15.0 0.00 0.00 0.00 80 1020.0
20260901222416 82 94 9.0 14.0 0.00 0.00 0.00 80 1019.9
20260901221912 82 65 7.0 13.0 0.00 0.00 0.00 80 1019.7
20260901221408 82 97 14.0 16.0 0.00 0.00 0.00 79 1019.8
20260901220908 82 95 9.0 13.0 0.00 0.00 0.00 78 1019.8
20260901220406 83 102 7.0 14.0 0.00 0.00 0.00 77 1019.8
20260901215905 83 82 7.0 14.0 0.00 0.00 0.00 77 1019.6
20260901215404 83 130 5.0 16.0 0.00 0.00 0.00 76 1019.7
20260901214903 83 108 15.0 17.0 0.00 0.00 0.00 76 1019.8
20260901214402 84 53 10.0 16.0 0.00 0.00 0.00 76 1019.8
20260901213901 84 107 9.0 14.0 0.00 0.00 0.00 76 1019.9
20260901213357 84 72 10.0 15.0 0.00 0.00 0.00 75 1019.7
20260901212856 84 132 12.0 17.0 0.00 0.00 0.00 75 1019.6
20260901212352 84 89 11.0 14.0 0.00 0.00 0.00 75 1019.6
20260901211848 84 111 13.0 16.0 0.00 0.00 0.00 75 1019.5
20260901211344 84 132 12.0 16.0 0.00 0.00 0.00 74 1019.6
20260901210839 84 143 11.0 16.0 0.00 0.00 0.00 73 1019.6
20260901210335 84 100 14.0 18.0 0.00 0.00 0.00 74 1019.6
20260901205831 84 63 10.0 19.0 0.00 0.00 0.00 74 1019.9
20260901205326 85 94 12.0 17.0 0.00 0.00 0.00 73 1019.8
20260901204821 86 115 11.0 15.0 0.00 0.00 0.00 73 1019.7
20260901204317 86 107 11.0 17.0 0.00 0.00 0.00 73 1019.8
20260901203816 86 83 11.0 21.0 0.00 0.00 0.00 72 1019.6
20260901203311 86 108 18.0 22.0 0.00 0.00 0.00 71 1019.8
20260901202811 86 115 10.0 17.0 0.00 0.00 0.00 71 1019.8
20260901202307 86 77 13.0 18.0 0.00 0.00 0.00 71 1019.8
20260901201803 85 138 11.0 17.0 0.00 0.00 0.00 71 1019.8
20260901201302 85 104 12.0 21.0 0.00 0.00 0.00 74 1019.8
20260901200755 84 154 12.0 15.0 0.00 0.00 0.00 78 1019.9
20260901200251 84 124 8.0 14.0 0.00 0.00 0.00 80 1020.1
20260901195749 84 117 15.0 17.0 0.00 0.00 0.00 80 1019.8
20260901195243 83 102 13.0 16.0 0.00 0.00 0.00 81 1019.9
20260901194739 83 102 13.0 16.0 0.00 0.00 0.00 81 1019.9
20260901194233 83 102 13.0 16.0 0.00 0.00 0.00 81 1019.9
20260901193730 83 102 13.0 16.0 0.00 0.00 0.00 81 1019.8
20260901193228 83 102 13.0 16.0 0.00 0.00 0.00 81 1020.1
20260901192723 83 102 13.0 16.0 0.00 0.00 0.00 81 1019.9
20260901192219 83 105 11.0 14.0 0.00 0.00 0.00 81 1020.0
20260901191715 83 122 8.0 14.0 0.00 0.00 0.00 82 1020.1
20260901191210 83 127 13.0 17.0 0.00 0.00 0.00 81 1019.9
20260901190706 83 95 10.0 15.0 0.00 0.00 0.00 81 1020.1
20260901190205 83 104 13.0 16.0 0.00 0.00 0.00 81 1020.2
20260901185704 83 104 12.0 17.0 0.00 0.00 0.00 80 1019.9
20260901185202 83 83 11.0 17.0 0.00 0.00 0.00 80 1020.0
20260901184700 83 88 10.0 19.0 0.00 0.00 0.00 80 1019.9
20260901184154 84 114 11.0 17.0 0.00 0.00 0.00 79 1019.9
20260901183649 85 72 12.0 15.0 0.00 0.00 0.00 77 1020.0
20260901183149 86 98 17.0 21.0 0.00 0.00 0.00 73 1019.7
20260901182646 87 152 9.0 15.0 0.00 0.00 0.00 71 1020.3
20260901182144 88 158 12.0 22.0 0.00 0.00 0.00 70 1020.2
20260901181640 88 101 17.0 22.0 0.00 0.00 0.00 69 1019.8
20260901181140 88 105 14.0 19.0 0.00 0.00 0.00 70 1019.5
20260901180639 87 145 12.0 19.0 0.00 0.00 0.00 71 1019.8
20260901180133 89 108 14.0 23.0 0.00 0.00 0.00 69 1019.9
20260901175633 88 93 16.0 22.0 0.00 0.00 0.00 68 1019.9
20260901175133 88 96 12.0 22.0 0.00 0.00 0.00 67 1020.0
20260901174628 88 83 16.0 23.0 0.00 0.00 0.00 66 1020.2
20260901174124 88 223 12.0 19.0 0.00 0.00 0.00 67 1020.2
20260901173619 89 125 13.0 22.0 0.00 0.00 0.00 65 1020.4
20260901173115 89 120 13.0 17.0 0.00 0.00 0.00 64 1020.6
20260901172610 89 120 18.0 21.0 0.00 0.00 0.00 64 1020.6
20260901172108 89 120 18.0 21.0 0.00 0.00 0.00 64 1020.6
20260901171608 89 177 17.0 23.0 0.00 0.00 0.00 63 1020.6
20260901171102 89 109 15.0 19.0 0.00 0.00 0.00 65 1020.8
20260901170601 90 89 15.0 18.0 0.00 0.00 0.00 65 1020.9
20260901170056 91 63 13.0 17.0 0.00 0.00 0.00 64 1021.1
20260901165555 90 132 13.0 22.0 0.00 0.00 0.00 65 1021.0
20260901165051 89 89 13.0 16.0 0.00 0.00 0.00 62 1020.9
20260901164546 89 124 15.0 18.0 0.00 0.00 0.00 62 1021.1
20260901164041 89 99 17.0 22.0 0.00 0.00 0.00 63 1021.0
20260901163537 89 100 16.0 18.0 0.00 0.00 0.00 67 1021.1
20260901163036 89 100 16.0 18.0 0.00 0.00 0.00 67 1021.1
20260901162531 89 100 16.0 18.0 0.00 0.00 0.00 67 1021.3
20260901162030 89 100 16.0 18.0 0.00 0.00 0.00 67 1021.4
20260901161529 89 100 16.0 18.0 0.00 0.00 0.00 67 1021.2
20260901161029 89 100 16.0 18.0 0.00 0.00 0.00 67 1021.5
20260901160526 89 100 16.0 18.0 0.00 0.00 0.00 67 1021.3
20260901160020 89 89 18.0 24.0 0.00 0.00 0.00 66 1021.4
20260901155519 89 130 10.0 14.0 0.00 0.00 0.00 67 1021.3
20260901155016 89 151 11.0 23.0 0.00 0.00 0.00 66 1021.5
20260901154515 90 129 17.0 25.0 0.00 0.00 0.00 65 1021.5
20260901154010 90 88 15.0 19.0 0.00 0.00 0.00 64 1021.4
20260901153504 90 90 16.0 27.0 0.00 0.00 0.00 66 1021.3
20260901152959 89 87 16.0 24.0 0.00 0.00 0.00 65 1021.6
20260901152458 90 106 14.0 23.0 0.00 0.00 0.00 64 1021.6
20260901151958 89 135 15.0 21.0 0.00 0.00 0.00 64 1021.5
20260901151453 89 84 18.0 22.0 0.00 0.00 0.00 64 1021.4
20260901150952 89 71 14.0 18.0 0.00 0.00 0.00 65 1021.2
20260901150450 88 81 13.0 23.0 0.00 0.00 0.00 66 1021.2
20260901145948 89 109 21.0 24.0 0.00 0.00 0.00 64 1021.3
20260901145443 88 110 15.0 21.0 0.00 0.00 0.00 65 1021.4
20260901144937 89 169 19.0 23.0 0.00 0.00 0.00 63 1021.5
20260901144432 89 140 11.0 17.0 0.00 0.00 0.00 62 1021.4
20260901143928 89 105 12.0 18.0 0.00 0.00 0.00 64 1021.5
20260901143424 89 110 19.0 24.0 0.00 0.00 0.00 63 1021.4
20260901142920 89 100 15.0 18.0 0.00 0.00 0.00 63 1021.3
20260901142420 89 50 8.0 21.0 0.00 0.00 0.00 64 1021.5
20260901141915 89 95 14.0 18.0 0.00 0.00 0.00 62 1021.5
20260901141409 88 118 11.0 19.0 0.00 0.00 0.00 63 1021.6
20260901140909 88 106 15.0 21.0 0.00 0.00 0.00 63 1021.6
20260901140407 88 115 11.0 17.0 0.00 0.00 0.00 64 1021.8
20260901135902 87 133 11.0 23.0 0.00 0.00 0.00 67 1021.8
20260901135357 87 122 13.0 22.0 0.00 0.00 0.00 66 1021.5
20260901134853 87 155 10.0 18.0 0.00 0.00 0.00 66 1021.5
20260901134349 87 110 10.0 15.0 0.00 0.00 0.00 66 1021.7
20260901133848 87 134 14.0 17.0 0.00 0.00 0.00 66 1021.7
20260901133348 86 92 11.0 16.0 0.00 0.00 0.00 65 1021.5
20260901132846 86 114 12.0 18.0 0.00 0.00 0.00 66 1021.7
20260901132341 86 110 8.0 15.0 0.00 0.00 0.00 65 1021.7
20260901131835 87 202 6.0 15.0 0.00 0.00 0.00 63 1021.5
20260901131334 87 100 9.0 15.0 0.00 0.00 0.00 62 1021.5
20260901130830 86 159 7.0 16.0 0.00 0.00 0.00 62 1021.7
20260901130324 86 135 9.0 13.0 0.00 0.00 0.00 61 1021.7
20260901125822 85 88 5.0 11.0 0.00 0.00 0.00 62 1021.4
20260901125322 85 69 7.0 11.0 0.00 0.00 0.00 61 1021.7
20260901124817 85 138 6.0 11.0 0.00 0.00 0.00 59 1021.6
20260901124313 85 109 7.0 11.0 0.00 0.00 0.00 59 1021.5
20260901123812 85 115 6.0 13.0 0.00 0.00 0.00 60 1021.5
20260901123307 85 107 5.0 8.0 0.00 0.00 0.00 59 1021.5
20260901122805 85 101 9.0 11.0 0.00 0.00 0.00 58 1021.4
20260901122300 85 81 8.0 14.0 0.00 0.00 0.00 58 1021.1
20260901121800 85 102 9.0 13.0 0.00 0.00 0.00 58 1021.1
20260901121255 85 84 9.0 11.0 0.00 0.00 0.00 57 1021.0
20260901120755 85 167 4.0 10.0 0.00 0.00 0.00 57 1020.7
20260901120249 85 90 10.0 14.0 0.00 0.00 0.00 55 1020.9
20260901115745 85 88 11.0 14.0 0.00 0.00 0.00 53 1020.9
20260901115240 86 94 11.0 13.0 0.00 0.00 0.00 52 1020.8
20260901114737 85 146 7.0 14.0 0.00 0.00 0.00 53 1020.5
20260901114232 84 80 10.0 11.0 0.00 0.00 0.00 54 1020.6
20260901113730 84 80 10.0 11.0 0.00 0.00 0.00 54 1020.6
20260901113226 84 84 12.0 14.0 0.00 0.00 0.00 54 1020.1
20260901112725 84 88 10.0 15.0 0.00 0.00 0.00 55 1020.3
20260901112220 84 121 9.0 11.0 0.00 0.00 0.00 55 1020.3
20260901111720 84 121 8.0 15.0 0.00 0.00 0.00 55 1020.2
20260901111220 83 89 10.0 15.0 0.00 0.00 0.00 56 1020.3
20260901110713 83 67 8.0 16.0 0.00 0.00 0.00 56 1020.2
20260901110209 84 87 8.0 13.0 0.00 0.00 0.00 55 1020.3
20260901105706 83 54 8.0 14.0 0.00 0.00 0.00 56 1020.1
20260901105159 83 76 9.0 17.0 0.00 0.00 0.00 57 1020.2
20260901104655 82 88 12.0 18.0 0.00 0.00 0.00 58 1020.0
20260901104150 82 67 14.0 17.0 0.00 0.00 0.00 59 1020.1
20260901103650 82 75 10.0 14.0 0.00 0.00 0.00 60 1019.9
20260901103146 82 87 8.0 18.0 0.00 0.00 0.00 60 1020.0
20260901102645 82 77 13.0 15.0 0.00 0.00 0.00 59 1020.0
20260901102144 81 89 13.0 15.0 0.00 0.00 0.00 60 1019.9
20260901101641 81 82 13.0 19.0 0.00 0.00 0.00 60 1019.8
20260901101140 81 83 12.0 17.0 0.00 0.00 0.00 62 1019.8
20260901100635 80 74 11.0 18.0 0.00 0.00 0.00 63 1019.6
20260901100130 80 79 14.0 19.0 0.00 0.00 0.00 65 1019.8
20260901095628 79 76 14.0 23.0 0.00 0.00 0.00 67 1019.8
20260901095126 79 69 13.0 22.0 0.00 0.00 0.00 70 1019.7
20260901094621 78 84 12.0 27.0 0.00 0.00 0.00 71 1019.6
20260901094120 77 83 15.0 24.0 0.00 0.00 0.00 74 1019.7
20260901093615 76 92 15.0 21.0 0.00 0.00 0.00 75 1019.6
20260901093115 76 66 16.0 21.0 0.00 0.00 0.00 76 1019.6
20260901092611 76 46 17.0 23.0 0.00 0.00 0.00 76 1019.6
20260901092107 76 84 10.0 17.0 0.00 0.00 0.00 78 1019.8
20260901091602 76 71 14.0 21.0 0.00 0.00 0.00 78 1019.6
20260901091057 76 102 14.0 22.0 0.00 0.00 0.00 79 1019.8
20260901090556 76 91 14.0 19.0 0.00 0.00 0.00 79 1019.9
20260901090052 76 94 14.0 19.0 0.00 0.00 0.00 81 1019.7
20260901085548 75 61 13.0 19.0 0.00 0.00 0.00 83 1019.7
20260901085043 75 106 9.0 16.0 0.00 0.00 0.00 85 1019.7
20260901084540 75 77 7.0 15.0 0.00 0.00 0.00 86 1019.8
20260901084036 75 64 9.0 17.0 0.00 0.00 0.00 86 1019.8
20260901083535 75 66 6.0 15.0 0.00 0.00 0.00 86 1019.7
20260901083033 75 60 14.0 22.0 0.00 0.00 0.00 87 1019.7
20260901082530 75 74 15.0 17.0 0.00 0.00 0.00 87 1019.8
20260901082025 75 86 6.0 13.0 0.00 0.00 0.00 88 1019.9
20260901081520 75 59 7.0 11.0 0.00 0.00 0.00 88 1019.9
20260901081015 75 54 7.0 14.0 0.00 0.00 0.00 88 1019.7
20260901080514 75 88 8.0 17.0 0.00 0.00 0.00 89 1019.9
20260901080013 75 72 6.0 15.0 0.00 0.00 0.00 89 1020.1
20260901075510 75 77 10.0 15.0 0.00 0.00 0.00 89 1019.9
20260901075009 75 67 12.0 17.0 0.00 0.00 0.00 89 1020.1
20260901074508 75 76 9.0 24.0 0.00 0.00 0.00 89 1020.1
20260901074004 75 61 7.0 15.0 0.00 0.00 0.00 89 1019.9
20260901073501 75 79 11.0 18.0 0.00 0.00 0.00 90 1019.9
20260901073001 75 83 13.0 15.0 0.00 0.00 0.00 89 1020.1
20260901072456 75 64 12.0 24.0 0.00 0.00 0.00 90 1019.9
20260901071951 75 83 14.0 22.0 0.00 0.00 0.00 90 1019.8
20260901071449 75 96 11.0 21.0 0.00 0.00 0.00 90 1019.8
20260901070944 75 91 13.0 23.0 0.00 0.00 0.00 90 1019.9
20260901070439 75 96 14.0 23.0 0.00 0.00 0.00 90 1020.1
20260901065938 76 73 14.0 24.0 0.00 0.00 0.00 90 1020.1
20260901065434 76 48 19.0 23.0 0.00 0.00 0.00 89 1020.3
20260901064928 76 2 12.0 19.0 0.00 0.00 0.00 89 1020.4
20260901064425 76 62 6.0 18.0 0.00 0.00 0.00 89 1020.4
20260901063922 76 98 15.0 25.0 0.00 0.00 0.00 88 1020.4
20260901063418 77 69 6.0 18.0 0.00 0.00 0.00 88 1020.8
20260901062914 77 80 10.0 19.0 0.00 0.00 0.00 88 1020.7
20260901062409 77 157 12.0 15.0 0.00 0.00 0.00 88 1020.8
20260901061904 78 104 15.0 21.0 0.00 0.00 0.00 88 1020.9
20260901061400 78 134 10.0 25.0 0.00 0.00 0.00 87 1021.0
20260901060855 78 40 9.0 25.0 0.00 0.00 0.00 87 1020.8
20260901060351 78 119 21.0 25.0 0.00 0.00 0.00 86 1020.8
20260901055850 78 109 14.0 19.0 0.00 0.00 0.00 86 1020.6
20260901055346 79 96 17.0 23.0 0.00 0.00 0.00 85 1020.8
20260901054843 80 136 14.0 22.0 0.00 0.00 0.00 83 1020.8
20260901054340 80 116 13.0 22.0 0.00 0.00 0.00 81 1020.9
20260901053836 80 156 12.0 29.0 0.00 0.00 0.00 81 1020.6
20260901053331 80 93 9.0 21.0 0.00 0.00 0.00 81 1020.9
20260901052826 80 95 15.0 22.0 0.00 0.00 0.00 81 1020.6
20260901052322 80 64 15.0 19.0 0.00 0.00 0.00 81 1020.8
20260901051820 80 84 15.0 18.0 0.00 0.00 0.00 81 1020.8
20260901051316 80 111 9.0 14.0 0.00 0.00 0.00 81 1020.9
20260901050810 80 94 11.0 15.0 0.00 0.00 0.00 81 1020.9
20260901050306 80 97 11.0 17.0 0.00 0.00 0.00 82 1020.9
20260901045801 80 105 6.0 17.0 0.00 0.00 0.00 83 1020.9
20260901045255 80 120 5.0 13.0 0.00 0.00 0.00 83 1021.0
20260901044751 80 90 8.0 15.0 0.00 0.00 0.00 83 1021.2
20260901044248 80 346 8.0 14.0 0.00 0.00 0.00 83 1021.2
20260901043743 80 102 8.0 15.0 0.00 0.00 0.00 83 1021.2
20260901043238 80 77 10.0 14.0 0.00 0.00 0.00 83 1021.2
20260901042732 80 69 11.0 18.0 0.00 0.00 0.00 83 1021.3
20260901042227 80 83 11.0 15.0 0.00 0.00 0.00 83 1021.6
20260901041723 80 119 5.0 13.0 0.00 0.00 0.00 83 1021.6
20260901041222 80 91 8.0 15.0 0.00 0.00 0.00 83 1021.6
20260901040717 80 152 8.0 22.0 0.00 0.00 0.00 83 1021.9
20260901040216 80 59 9.0 18.0 0.00 0.00 0.00 83 1021.7
20260901035715 80 144 11.0 15.0 0.00 0.01 0.01 83 1021.8
20260901035214 80 86 10.0 15.0 0.00 0.01 0.01 83 1021.9
20260901034708 80 102 10.0 10.0 0.00 0.01 0.01 83 1021.8
20260901034203 80 107 11.0 15.0 0.00 0.01 0.01 82 1022.0
20260901033702 80 102 10.0 11.0 0.00 0.01 0.01 82 1021.9
20260901033201 80 150 6.0 16.0 0.00 0.01 0.01 82 1022.0
20260901032700 80 85 10.0 19.0 0.00 0.01 0.01 82 1021.8
20260901032154 80 33 9.0 15.0 0.00 0.01 0.01 82 1021.8
20260901031650 80 59 7.0 17.0 0.00 0.01 0.01 82 1021.9
20260901031146 80 70 6.0 19.0 0.00 0.01 0.01 81 1021.9
20260901030640 80 125 15.0 17.0 0.00 0.01 0.01 81 1021.5
20260901030135 80 93 8.0 11.0 0.00 0.01 0.01 80 1021.4
20260901025629 80 105 10.0 14.0 0.00 0.01 0.01 79 1021.6
20260901025124 80 66 9.0 13.0 0.00 0.01 0.01 78 1021.2
20260901024624 80 88 10.0 11.0 0.00 0.01 0.01 77 1021.3
20260901024123 80 89 9.0 11.0 0.00 0.01 0.01 77 1021.6
20260901023622 79 86 4.0 10.0 0.00 0.01 0.01 78 1021.2
20260901023117 80 80 7.0 8.0 0.00 0.01 0.01 79 1021.4
20260901022612 80 62 5.0 11.0 0.00 0.01 0.01 79 1021.2
20260901022108 80 98 8.0 14.0 0.00 0.01 0.01 80 1021.4
20260901021603 80 77 11.0 15.0 0.00 0.01 0.01 81 1021.4
20260901021058 80 56 6.0 18.0 0.00 0.01 0.01 81 1021.6
20260901020554 80 61 8.0 15.0 0.00 0.01 0.01 80 1021.5
20260901020050 80 22 9.0 16.0 0.00 0.01 0.01 80 1021.4
20260901015545 80 75 10.0 17.0 0.00 0.01 0.01 81 1021.5
20260901015044 80 86 9.0 14.0 0.00 0.01 0.01 82 1021.4
20260901014540 80 13 6.0 17.0 0.00 0.01 0.01 82 1021.3
20260901014036 80 83 12.0 18.0 0.00 0.01 0.01 82 1021.4
20260901013532 80 75 12.0 15.0 0.00 0.01 0.01 82 1021.6
20260901013027 80 100 8.0 18.0 0.00 0.01 0.01 82 1021.4
20260901012527 80 88 16.0 19.0 0.00 0.01 0.01 82 1021.4
20260901012022 80 111 6.0 13.0 0.00 0.01 0.01 82 1021.5
20260901011519 80 153 6.0 13.0 0.00 0.01 0.01 82 1021.2
20260901011016 80 111 9.0 14.0 0.00 0.01 0.01 82 1021.3
20260901010511 80 89 8.0 14.0 0.00 0.01 0.01 81 1021.3
20260901010010 80 130 6.0 15.0 0.00 0.01 0.01 81 1021.4
20260901005505 80 97 6.0 17.0 0.00 0.01 0.01 81 1021.3
20260901005000 80 117 11.0 17.0 0.00 0.01 0.01 81 1021.2
20260901004500 80 89 17.0 21.0 0.00 0.01 0.01 81 1021.3
20260901003955 80 113 11.0 16.0 0.00 0.01 0.01 81 1021.3
20260901003450 80 63 11.0 18.0 0.00 0.01 0.01 81 1021.1
20260901002948 80 109 12.0 18.0 0.00 0.01 0.01 82 1021.0
20260901002448 80 112 15.0 19.0 0.00 0.01 0.01 82 1020.9
20260901001947 81 105 9.0 16.0 0.00 0.01 0.01 81 1020.9
20260901001443 81 116 11.0 17.0 0.00 0.01 0.01 81 1020.8
20260901000938 81 63 11.0 19.0 0.00 0.01 0.01 82 1020.7
20260901000435 81 94 12.0 17.0 0.00 0.01 0.01 83 1020.7
20260831235932 82 88 13.0 18.0 0.00 0.01 0.01 83 1020.6
20260831235428 82 137 6.0 17.0 0.00 0.01 0.01 82 1020.7
20260831234923 82 84 12.0 17.0 0.00 0.01 0.01 81 1020.7
20260831234423 82 98 17.0 21.0 0.00 0.01 0.01 81 1020.4
20260831233919 82 103 8.0 15.0 0.00 0.01 0.01 80 1020.3